Time,TemperatureF,DewpointF,PressureIn,WindDirection,WindDirectionDegrees,WindSpeedMPH,WindSpeedGustMPH,Humidity,HourlyPrecipIn,Conditions,Clouds,dailyrainin,SolarRadiationWatts/m^2,SoftwareType,DateUTC
2013-03-04 00:04:00,26.9,17.0,29.72,South,175,1.0,8.0,67,0.00,,,0.00,0,weatherlink.com 1.10,2013-03-04 05:04:00,
2013-03-04 00:19:00,26.9,18.0,29.72,WNW,301,1.0,2.0,68,0.00,,,0.00,0,weatherlink.com 1.10,2013-03-04 05:19:00,
2013-03-04 00:34:00,26.9,18.0,29.72,SSW,213,0.0,4.0,69,0.00,,,0.00,0,weatherlink.com 1.10,2013-03-04 05:34:00,
2013-03-04 00:49:00,27.0,18.0,29.73,WNW,302,1.0,5.0,69,0.00,,,0.00,0,weatherlink.com 1.10,2013-03-04 05:49:00,
2013-03-04 01:04:00,26.9,18.0,29.73,WNW,288,1.0,5.0,69,0.00,,,0.00,0,weatherlink.com 1.10,2013-03-04 06:04:00,
2013-03-04 01:19:00,27.0,18.0,29.73,West,262,1.0,6.0,69,0.00,,,0.00,0,weatherlink.com 1.10,2013-03-04 06:19:00,
2013-03-04 01:34:00,27.0,18.0,29.73,SW,228,1.0,4.0,69,0.00,,,0.00,0,weatherlink.com 1.10,2013-03-04 06:34:00,
2013-03-04 01:49:00,27.0,18.0,29.73,NNW,340,1.0,3.0,70,0.00,,,0.00,0,weatherlink.com 1.10,2013-03-04 06:49:00,
2013-03-04 02:04:00,27.1,18.0,29.73,SE,126,0.0,4.0,69,0.00,,,0.00,0,weatherlink.com 1.10,2013-03-04 07:04:00,
2013-03-04 02:19:00,27.1,19.0,29.73,WSW,253,0.0,3.0,70,0.00,,,0.00,0,weatherlink.com 1.10,2013-03-04 07:19:00,
2013-03-04 02:34:00,27.1,19.0,29.73,South,190,1.0,4.0,70,0.00,,,0.00,0,weatherlink.com 1.10,2013-03-04 07:34:00,
2013-03-04 02:49:00,27.0,18.0,29.73,SW,216,2.0,4.0,70,0.00,,,0.00,0,weatherlink.com 1.10,2013-03-04 07:49:00,
2013-03-04 03:04:00,27.0,19.0,29.73,SSW,202,1.0,7.0,71,0.00,,,0.00,0,weatherlink.com 1.10,2013-03-04 08:04:00,
2013-03-04 03:19:00,27.0,19.0,29.73,WNW,288,2.0,5.0,71,0.00,,,0.00,0,weatherlink.com 1.10,2013-03-04 08:19:00,
2013-03-04 03:34:00,27.0,19.0,29.73,SW,235,1.0,3.0,72,0.00,,,0.00,0,weatherlink.com 1.10,2013-03-04 08:34:00,
2013-03-04 03:50:00,27.0,19.0,29.73,South,188,2.0,6.0,72,0.00,,,0.00,0,weatherlink.com 1.10,2013-03-04 08:50:00,
2013-03-04 04:04:00,27.1,20.0,29.73,SW,214,3.0,4.0,73,0.00,,,0.00,0,weatherlink.com 1.10,2013-03-04 09:04:00,
2013-03-04 04:19:00,27.3,20.0,29.74,SW,231,0.0,5.0,73,0.00,,,0.00,0,weatherlink.com 1.10,2013-03-04 09:19:00,
2013-03-04 04:34:00,27.3,20.0,29.74,SSW,200,1.0,5.0,74,0.00,,,0.00,0,weatherlink.com 1.10,2013-03-04 09:34:00,
2013-03-04 04:49:00,27.5,20.0,29.74,NW,317,1.0,5.0,74,0.00,,,0.00,0,weatherlink.com 1.10,2013-03-04 09:49:00,
2013-03-04 05:04:00,27.6,20.0,29.74,NW,313,1.0,5.0,73,0.00,,,0.00,0,weatherlink.com 1.10,2013-03-04 10:04:00,
2013-03-04 05:19:00,27.7,20.0,29.74,NW,315,4.0,6.0,73,0.00,,,0.00,0,weatherlink.com 1.10,2013-03-04 10:19:00,
2013-03-04 05:34:00,27.7,20.0,29.74,SW,227,1.0,6.0,73,0.00,,,0.00,0,weatherlink.com 1.10,2013-03-04 10:34:00,
2013-03-04 05:49:00,27.8,20.0,29.74,West,260,1.0,6.0,73,0.00,,,0.00,0,weatherlink.com 1.10,2013-03-04 10:49:00,
2013-03-04 06:04:00,28.0,20.0,29.74,NNW,337,4.0,7.0,73,0.00,,,0.00,0,weatherlink.com 1.10,2013-03-04 11:04:00,
2013-03-04 06:19:00,28.1,20.0,29.74,NNE,31,2.0,7.0,73,0.00,,,0.00,0,weatherlink.com 1.10,2013-03-04 11:19:00,
2013-03-04 06:34:00,28.1,20.0,29.75,West,273,0.0,7.0,73,0.00,,,0.00,0,weatherlink.com 1.10,2013-03-04 11:34:00,
2013-03-04 06:50:00,28.2,20.0,29.75,SSE,153,3.0,8.0,72,0.00,,,0.00,14,weatherlink.com 1.10,2013-03-04 11:50:00,
2013-03-04 07:05:00,28.3,20.0,29.75,West,269,2.0,8.0,71,0.00,,,0.00,25,weatherlink.com 1.10,2013-03-04 12:05:00,
2013-03-04 07:20:00,28.6,20.0,29.76,SSE,156,0.0,6.0,71,0.00,,,0.00,58,weatherlink.com 1.10,2013-03-04 12:20:00,
2013-03-04 07:35:00,29.0,20.0,29.76,SSW,205,0.0,7.0,70,0.00,,,0.00,56,weatherlink.com 1.10,2013-03-04 12:35:00,
2013-03-04 07:50:00,29.3,20.0,29.76,NW,317,1.0,4.0,68,0.00,,,0.00,70,weatherlink.com 1.10,2013-03-04 12:50:00,
2013-03-04 08:05:00,29.7,20.0,29.75,NNW,333,1.0,6.0,67,0.00,,,0.00,97,weatherlink.com 1.10,2013-03-04 13:05:00,
2013-03-04 08:20:00,30.4,20.0,29.75,NNE,17,1.0,6.0,66,0.00,,,0.00,98,weatherlink.com 1.10,2013-03-04 13:20:00,
2013-03-04 08:35:00,30.5,20.0,29.75,South,181,3.0,6.0,65,0.00,,,0.00,95,weatherlink.com 1.10,2013-03-04 13:35:00,
2013-03-04 08:50:00,30.5,20.0,29.76,NNW,344,6.0,7.0,65,0.00,,,0.00,141,weatherlink.com 1.10,2013-03-04 13:50:00,
2013-03-04 09:05:00,30.8,20.0,29.75,South,178,2.0,9.0,65,0.00,,,0.00,149,weatherlink.com 1.10,2013-03-04 14:05:00,
2013-03-04 09:20:00,31.3,20.0,29.76,NNW,348,4.0,9.0,63,0.00,,,0.00,200,weatherlink.com 1.10,2013-03-04 14:20:00,
2013-03-04 09:35:00,31.0,20.0,29.76,South,171,2.0,12.0,63,0.00,,,0.00,188,weatherlink.com 1.10,2013-03-04 14:35:00,
2013-03-04 09:50:00,31.4,20.0,29.76,SSW,192,1.0,7.0,63,0.00,,,0.00,265,weatherlink.com 1.10,2013-03-04 14:50:00,
2013-03-04 10:05:00,32.1,20.0,29.76,West,271,2.0,9.0,61,0.00,,,0.00,218,weatherlink.com 1.10,2013-03-04 15:05:00,
2013-03-04 10:20:00,32.2,20.0,29.76,North,5,1.0,10.0,60,0.00,,,0.00,694,weatherlink.com 1.10,2013-03-04 15:20:00,
2013-03-04 10:35:00,32.8,20.0,29.76,West,279,1.0,10.0,59,0.00,,,0.00,295,weatherlink.com 1.10,2013-03-04 15:35:00,
2013-03-04 10:50:00,33.2,21.0,29.75,North,360,0.0,10.0,60,0.00,,,0.00,338,weatherlink.com 1.10,2013-03-04 15:50:00,
2013-03-04 11:05:00,33.6,20.0,29.75,SSW,211,2.0,12.0,58,0.00,,,0.00,397,weatherlink.com 1.10,2013-03-04 16:05:00,
2013-03-04 11:20:00,34.3,21.0,29.76,WNW,302,2.0,9.0,59,0.00,,,0.00,381,weatherlink.com 1.10,2013-03-04 16:20:00,
2013-03-04 11:35:00,34.6,20.0,29.75,NNW,330,3.0,7.0,56,0.00,,,0.00,545,weatherlink.com 1.10,2013-03-04 16:35:00,
2013-03-04 11:51:00,33.9,20.0,29.75,NW,322,4.0,7.0,58,0.00,,,0.00,367,weatherlink.com 1.10,2013-03-04 16:51:00,
2013-03-04 12:05:00,34.8,21.0,29.74,NW,319,1.0,6.0,57,0.00,,,0.00,388,weatherlink.com 1.10,2013-03-04 17:05:00,
2013-03-04 12:20:00,34.1,20.0,29.75,NW,317,2.0,7.0,57,0.00,,,0.00,322,weatherlink.com 1.10,2013-03-04 17:20:00,
2013-03-04 12:35:00,34.9,20.0,29.74,South,183,3.0,9.0,56,0.00,,,0.00,199,weatherlink.com 1.10,2013-03-04 17:35:00,
2013-03-04 12:50:00,34.5,20.0,29.74,West,277,1.0,12.0,56,0.00,,,0.00,411,weatherlink.com 1.10,2013-03-04 17:50:00,
2013-03-04 13:05:00,35.4,21.0,29.74,ENE,62,3.0,8.0,57,0.00,,,0.00,471,weatherlink.com 1.10,2013-03-04 18:05:00,
2013-03-04 13:20:00,35.2,20.0,29.73,West,269,2.0,9.0,55,0.00,,,0.00,274,weatherlink.com 1.10,2013-03-04 18:20:00,
2013-03-04 13:35:00,35.3,21.0,29.73,ESE,119,1.0,9.0,56,0.00,,,0.00,239,weatherlink.com 1.10,2013-03-04 18:35:00,
2013-03-04 13:50:00,35.1,20.0,29.74,NNW,327,3.0,7.0,55,0.00,,,0.00,227,weatherlink.com 1.10,2013-03-04 18:50:00,
2013-03-04 14:05:00,34.8,21.0,29.74,WNW,292,4.0,13.0,57,0.00,,,0.00,241,weatherlink.com 1.10,2013-03-04 19:05:00,
2013-03-04 14:20:00,35.1,21.0,29.74,NNW,339,4.0,8.0,57,0.00,,,0.00,410,weatherlink.com 1.10,2013-03-04 19:20:00,
2013-03-04 14:35:00,35.5,21.0,29.74,NNW,338,1.0,7.0,55,0.00,,,0.00,304,weatherlink.com 1.10,2013-03-04 19:35:00,
2013-03-04 14:50:00,35.5,20.0,29.75,South,178,2.0,7.0,54,0.00,,,0.00,316,weatherlink.com 1.10,2013-03-04 19:50:00,
2013-03-04 15:05:00,35.8,20.0,29.75,NNW,332,9.0,11.0,53,0.00,,,0.00,318,weatherlink.com 1.10,2013-03-04 20:05:00,
2013-03-04 15:21:00,36.2,20.0,29.76,WSW,247,6.0,11.0,53,0.00,,,0.00,383,weatherlink.com 1.10,2013-03-04 20:21:00,
2013-03-04 15:35:00,36.9,21.0,29.75,WNW,303,5.0,10.0,53,0.00,,,0.00,668,weatherlink.com 1.10,2013-03-04 20:35:00,
2013-03-04 15:50:00,35.5,21.0,29.76,WNW,302,3.0,11.0,55,0.00,,,0.00,515,weatherlink.com 1.10,2013-03-04 20:50:00,
2013-03-04 16:05:00,33.7,20.0,29.76,NW,313,2.0,15.0,57,0.00,,,0.00,79,weatherlink.com 1.10,2013-03-04 21:05:00,
2013-03-04 16:20:00,32.9,20.0,29.77,North,360,2.0,9.0,59,0.00,,,0.00,53,weatherlink.com 1.10,2013-03-04 21:20:00,
2013-03-04 16:35:00,32.6,20.0,29.77,SW,223,2.0,7.0,60,0.00,,,0.00,72,weatherlink.com 1.10,2013-03-04 21:35:00,
2013-03-04 16:50:00,32.1,19.0,29.77,NW,321,2.0,9.0,60,0.00,,,0.00,62,weatherlink.com 1.10,2013-03-04 21:50:00,
2013-03-04 17:05:00,31.9,20.0,29.77,ESE,119,4.0,8.0,61,0.00,,,0.00,63,weatherlink.com 1.10,2013-03-04 22:05:00,
2013-03-04 17:20:00,31.8,20.0,29.78,SSW,201,1.0,10.0,61,0.00,,,0.00,33,weatherlink.com 1.10,2013-03-04 22:20:00,
2013-03-04 17:35:00,31.4,19.0,29.79,West,275,2.0,11.0,61,0.00,,,0.00,11,weatherlink.com 1.10,2013-03-04 22:35:00,
2013-03-04 18:06:00,31.1,19.0,29.80,South,172,7.0,10.0,62,0.00,,,0.00,0,weatherlink.com 1.10,2013-03-04 23:06:00,
2013-03-04 18:21:00,31.1,20.0,29.80,South,169,1.0,9.0,63,0.00,,,0.00,0,weatherlink.com 1.10,2013-03-04 23:21:00,
2013-03-04 18:36:00,31.0,20.0,29.81,WNW,293,2.0,7.0,63,0.00,,,0.00,0,weatherlink.com 1.10,2013-03-04 23:36:00,
2013-03-04 18:51:00,30.9,20.0,29.81,WSW,244,2.0,10.0,63,0.00,,,0.00,0,weatherlink.com 1.10,2013-03-04 23:51:00,
2013-03-04 19:06:00,30.8,19.0,29.82,NNW,332,3.0,14.0,63,0.00,,,0.00,0,weatherlink.com 1.10,2013-03-05 00:06:00,
2013-03-04 19:21:00,30.8,20.0,29.82,WNW,296,3.0,8.0,64,0.00,,,0.00,0,weatherlink.com 1.10,2013-03-05 00:21:00,
2013-03-04 19:36:00,30.7,20.0,29.83,SW,235,2.0,9.0,65,0.00,,,0.00,0,weatherlink.com 1.10,2013-03-05 00:36:00,
2013-03-04 19:51:00,30.8,20.0,29.83,SW,230,1.0,6.0,65,0.00,,,0.00,0,weatherlink.com 1.10,2013-03-05 00:51:00,
2013-03-04 20:06:00,30.8,20.0,29.84,SSW,203,1.0,7.0,65,0.00,,,0.00,0,weatherlink.com 1.10,2013-03-05 01:06:00,
2013-03-04 20:21:00,30.8,21.0,29.85,NNW,327,7.0,9.0,66,0.00,,,0.00,0,weatherlink.com 1.10,2013-03-05 01:21:00,
2013-03-04 20:36:00,30.8,21.0,29.86,NNW,336,2.0,7.0,67,0.00,,,0.00,0,weatherlink.com 1.10,2013-03-05 01:36:00,
2013-03-04 20:51:00,30.9,21.0,29.86,South,190,1.0,4.0,67,0.00,,,0.00,0,weatherlink.com 1.10,2013-03-05 01:51:00,
2013-03-04 21:06:00,30.8,22.0,29.87,NW,306,0.0,7.0,69,0.00,,,0.00,0,weatherlink.com 1.10,2013-03-05 02:06:00,
2013-03-04 21:21:00,30.6,22.0,29.87,SE,128,1.0,5.0,70,0.00,,,0.00,0,weatherlink.com 1.10,2013-03-05 02:21:00,
2013-03-04 21:36:00,30.5,22.0,29.87,NW,317,1.0,8.0,71,0.00,,,0.00,0,weatherlink.com 1.10,2013-03-05 02:36:00,
2013-03-04 21:51:00,30.5,22.0,29.87,North,349,4.0,9.0,71,0.00,,,0.00,0,weatherlink.com 1.10,2013-03-05 02:51:00,
2013-03-04 22:06:00,30.5,22.0,29.87,NNW,336,1.0,4.0,71,0.00,,,0.00,0,weatherlink.com 1.10,2013-03-05 03:06:00,
2013-03-04 22:21:00,30.5,22.0,29.87,West,269,2.0,6.0,71,0.00,,,0.00,0,weatherlink.com 1.10,2013-03-05 03:21:00,
2013-03-04 22:36:00,30.5,22.0,29.88,NW,314,0.0,5.0,71,0.00,,,0.00,0,weatherlink.com 1.10,2013-03-05 03:36:00,
2013-03-04 22:51:00,30.6,22.0,29.87,WNW,302,1.0,4.0,71,0.00,,,0.00,0,weatherlink.com 1.10,2013-03-05 03:51:00,
2013-03-04 23:06:00,30.7,22.0,29.87,NW,324,0.0,4.0,71,0.00,,,0.00,0,weatherlink.com 1.10,2013-03-05 04:06:00,
2013-03-04 23:21:00,30.8,22.0,29.87,NNW,339,3.0,5.0,70,0.00,,,0.00,0,weatherlink.com 1.10,2013-03-05 04:21:00,
2013-03-04 23:36:00,30.9,22.0,29.88,West,271,1.0,6.0,70,0.00,,,0.00,0,weatherlink.com 1.10,2013-03-05 04:36:00,
2013-03-04 23:51:00,30.9,22.0,29.88,WSW,238,1.0,7.0,70,0.00,,,0.00,0,weatherlink.com 1.10,2013-03-05 04:51:00,